Current Version              Previous Version:    01  02  03  04  05  06  07  08  09  10  11  12  13  14  15  16  17  18  19  20  21  22  23  24  25  26  27  28  29  30  
   31  32  33  34  35  36  37  38  39  40  41  42  43  44  45  46  47  48  49  50  51  52  53  54  55  56  57  58  59  60  

[Printable]
536
ASUS44 KEWX 200202
RWRTX
SOUTH TEXAS REGIONAL WEATHER ROUNDUP
NATIONAL WEATHER SERVICE AUSTIN/SAN ANTONIO TX
900 PM CDT SUN OCT 19 2014

NOTE: "FAIR" INDICATED FEW OR NO CLOUDS BELOW 12,000 FEET WITH NO
SIGNIFICANT WEATHER AND/OR OBSTRUCTIONS TO VISIBILITY.

* - THESE STATIONS ARE NOT NWS OR FAA STATIONS...AND ARE NOT SUBJECT
    TO NWS AND FAA QUALITY CONTROL.

TXZ171-172-183>190-200300-
TEXAS HILL COUNTRY AND EDWARDS PLATEAU

CITY           SKY/WX    TMP DP  RH WIND       PRES   REMARKS
JUNCTION       CLEAR     69  55  60 E6        30.05S
*LLANO           N/A    N/A N/A N/A MISG        N/A
BURNET         CLEAR     69  60  73 E6        30.08S
*HORSESHOE BAY CLEAR     68  59  74 CALM      30.06S
*KERRVILLE     PTCLDY    72  59  64 E6        30.06S
*FREDERICKSBRG CLEAR     68  59  73 E3        30.06S
*ROCKSPRINGS   CLEAR     70  55  60 CALM      30.09R
*BOERNE STAGE  CLOUDY    68  54  60 CALM      30.06S
*CASTROVILLE   CLOUDY    76  54  46 E5        30.02S
HONDO          PTCLDY    68  55  63 E6        30.03S
*UVALDE        PTCLDY    73  57  58 E5        30.02R
DEL RIO        CLEAR     73  65  75 SE5       29.99R
LAUGHLIN AFB   CLEAR     71  59  65 E7        30.00R
CARRIZO SPRGS  PTCLDY    75  63  64 SE6       29.97S
$$

TXZ173-191>194-202-209-217>225-228-200300-
CENTRAL AND SOUTH CENTRAL TEXAS

CITY           SKY/WX    TMP DP  RH WIND       PRES   REMARKS
GEORGETOWN     NOT AVBL
AUSTIN/BERGSTM MOCLDY    71  62  73 NE5       30.03S
AUSTIN/MABRY   MOCLDY    73  62  68 NE3       30.05S
*AUSTIN/EXEC   CLOUDY    68  61  77 NE3       30.05S
*LAGO VISTA    MOCLDY    70  60  71 E6        30.07S
SAN MARCOS     MOCLDY    72  57  60 E7        30.04S
NEW BRAUNFELS  CLOUDY    75  58  55 E5        30.02R
RANDOLPH AFB   CLOUDY    73  58  59 E8        30.03R
PT SAN ANTONIO CLOUDY    78  58  50 E12       30.00S
SAN ANTONIO    CLOUDY    76  58  53 E8        30.02S
STINSON FIELD  CLOUDY    78  58  49 E10       30.00R
*PLEASANTON    PTCLDY    75  59  58 E6        30.01S
*LA GRANGE     CLEAR     71  65  81 CALM      30.02S
*GIDDINGS      CLEAR     71  62  72 E6        30.07S
*GONZALES      CLEAR     74  62  65 NE5       30.02R
$$

TXZ163>164-176>182-195>201-210>213-226-227-235-200300-
SOUTHEAST TEXAS

CITY           SKY/WX    TMP DP  RH WIND       PRES   REMARKS
COLLEGE STN    CLEAR     71  61  70 E5        30.05R
*BRYAN         CLEAR     67  62  82 CALM      30.07R
*CALDWELL      CLEAR     70  63  78 NE5       30.08R
*CROCKETT      CLEAR     64  63  94 CALM      30.10S
*BRENHAM       CLEAR     72  63  74 CALM      30.05R
HUNTSVILLE     PTCLDY    68  61  78 CALM      30.06S
CONROE         CLEAR     64  62  93 CALM      30.06R
HOUSTON BUSH   MOCLDY    70  64  81 E8        30.04S
HOUSTON HOBBY  MOCLDY    71  66  84 CALM      30.03S
*HOUSTON SW AP MOCLDY    65  62  91 E3        30.04S
PEARLAND       MOCLDY    71  66  84 E3        30.05R
HOUSTON HOOKS  MOCLDY    71  64  78 CALM      30.05R
ELLINGTON FLD  MOCLDY    72  66  83 SE2       30.05R
SUGAR LAND     MOCLDY    73  65  75 E5        30.03S
*HOUSTON EXEC  CLOUDY    72 N/A N/A E6        30.05R
*CLEVELAND MUN NOT AVBL
*WHARTON       PTCLDY    69  65  87 E3        30.03S
*COLUMBUS      FAIR      69  63  80 NE3       30.03R
$$

TXZ214>216-236>238-200300-
THE UPPER TEXAS COAST

CITY           SKY/WX    TMP DP  RH WIND       PRES   REMARKS
*ORANGE        MOCLDY    66  61  84 N5        30.07R
PORT ARTHUR    MOCLDY    71  59  65 NE7       30.05R
GALVESTON      MOCLDY    74  65  73 E8        30.04F
ANGLETON       PTCLDY    70  67  90 NE5       30.03S
*BAY CITY        N/A     71  69  92 E7        30.02S
PALACIOS       PTCLDY    73  68  84 E8        30.01S
$$

TXZ229>234-239>247-200300-
TEXAS COASTAL BEND AND RIO GRANDE PLAINS

CITY           SKY/WX    TMP DP  RH WIND       PRES   REMARKS
VICTORIA       PTCLDY    71  67  87 E8        30.01S
*BEEVILLE      PTCLDY    74  65  73 E5        30.01R
ROCKPORT       MOCLDY    77  68  73 E13       29.98S
*PORT ARANSAS  PTCLDY    77  69  76 E13G20    29.98R
*PORT LAVACA   PTCLDY    74  68  82 E10       30.01S
*INGLESIDE     MOCLDY    79  68  69 E10       29.97F
CORPUS CHRISTI MOCLDY    77  68  73 E9        29.98R
CORPUS NAS     MOCLDY    78  68  71 E12       29.97R
*ROBSTOWN      NOT AVBL
ALICE          MOCLDY    73  66  78 E3        29.98R
KINGSVILLE NAS MOCLDY    75  68  78 E6        29.97S
COTULLA        PTCLDY    77  60  55 SE7       29.99R
*FAITH RANCH   PTCLDY    75  64  69 E6        29.98S
LAREDO         PTCLDY    77  66  68 E7        30.01R
$$

TXZ248>255-200300-
DEEP SOUTH TEXAS

CITY           SKY/WX    TMP DP  RH WIND       PRES   REMARKS
BROWNSVILLE    CLOUDY    76  67  73 NE3       29.95R
PORT ISABEL    CLOUDY    78  67  68 E7        29.95R
*SOUTH PADRE   CLOUDY    81  68  65 E10G18    29.95R
HARLINGEN      CLOUDY    79  69  71 NE3       29.95R
*HEBBRONVILLE  MOCLDY    75  65  71 E7        30.00S
MCALLEN        MOCLDY    78  67  68 E6        29.97R
*WESLACO       CLOUDY    77  65  67 CALM      29.96R
FALFURRIAS     MOCLDY    74  66  76 NE5       29.97S
EDINBURG       CLOUDY    76  65  69 CALM      29.97S
*ZAPATA        CLOUDY    77  67  71 S5        29.98R
$$

TXZ213>215-236>238-242>244-246-247-251-254-255-200300-
CMAN STATIONS

STATION/POSITION TIME  TEMP    WIND        PRES    WAVE
                       AIR SEA DIR/SP/G            HT/PER
                 (UTC) (F)     (DEG/KT/KT) (MB)    (FT/S)
SABINE PASS      0100   72 76   60/  5/  6 1017.4
SEA RIM ST PARK  0100   71      90/  6/  7 1017.9
NORTH JETTY/GLS  0100   75 79  110/ 12/ 14   N/A
EAGLE POINT      0100   74 77  120/ 11/ 13 1017.2
MORGANS POINT    0100   73     100/  5/  7 1017.2
MISSION/ARANSAS  0100           90/ 11     1016.0
PORT O`CONNOR    0100           70/ 16/ 18   N/A
PORT ARANSAS     0100   78 79   70/ 17/ 19 1015.8
MALAQUITE BEACH  0100   80 79   60/ 14/ 18 1014.1
BAFFIN BAY       0100   79 85   90/ 10/ 12 1014.5
PORT ISABEL      0100   80 80   70/  7/ 14 1014.2
$$

GMZ080-GMZ150>470-200300-
OFFSHORE BUOY REPORTS

STATION/POSITION TIME  TEMP    WIND        PRES    WAVE
                       AIR SEA DIR/SP/G            HT/PER
                 (UTC) (F)     (DEG/KT/KT) (MB)    (FT/S)
20 E GALVESTON   0200   76 80   70/ 14/ 17 1016.3    2/ 5
90 E PT ARANSAS  0200   78 81   70/ 12/ 16 1015.8    4/ 5
35 NE PT MANSFLD 0100   79 81   40/ 12/ 14 1013.9    4/ 5
200 E PT ISABEL  0100   80 82   90/ 12/ 14 1014.3    3/ 5
$$